Date,TemperatureHighF,TemperatureAvgF,TemperatureLowF,DewpointHighF,DewpointAvgF,DewpointLowF,HumidityHigh,HumidityAvg,HumidityLow,PressureMaxIn,PressureMinIn,WindSpeedMaxMPH,WindSpeedAvgMPH,GustSpeedMaxMPH,PrecipitationSumIn
2012-1-1,60,42,21,20,14,0,75,38,13,30.64,30.25,9,1,20,0.00
2012-1-2,60,44,25,20,11,-3,68,33,9,30.64,30.18,9,2,20,0.00
2012-1-3,64,41,25,23,14,3,69,43,9,30.70,30.35,4,1,10,0.00
2012-1-4,60,39,20,22,16,11,78,48,15,30.75,30.45,5,1,11,0.00
2012-1-5,62,43,24,26,15,9,78,42,13,30.63,30.18,2,1,6,0.00
2012-1-6,59,40,25,25,17,6,77,48,12,30.38,30.10,3,1,10,0.00
2012-1-7,48,35,23,16,11,5,66,38,18,30.39,30.03,6,2,11,0.00
2012-1-8,43,33,25,9,2,-11,47,29,10,30.47,30.22,6,3,12,0.00
2012-1-9,49,31,21,21,16,9,73,56,28,30.54,30.32,5,1,10,0.00
2012-1-10,56,36,21,24,17,13,81,51,18,30.50,30.17,5,1,8,0.00
2012-1-11,48,35,24,27,16,12,74,50,27,30.40,30.17,6,1,11,0.00
2012-1-12,47,31,19,15,8,-1,67,42,14,30.47,30.21,7,1,12,0.00
2012-1-13,49,35,13,10,-2,-11,54,26,8,30.65,30.39,5,2,13,0.00
2012-1-14,52,38,13,11,-7,-22,62,24,4,30.61,30.22,6,2,13,0.00
2012-1-15,43,35,21,30,18,2,86,54,25,30.25,30.07,8,3,21,0.00
2012-1-16,43,33,27,28,13,-12,87,50,13,30.25,30.04,9,4,21,0.00
2012-1-17,51,33,18,13,2,-9,56,30,11,30.51,30.20,5,1,13,0.00
2012-1-18,55,41,22,11,-2,-10,57,21,7,30.53,30.18,10,2,18,0.00
2012-1-19,59,45,32,4,-6,-19,30,13,5,30.26,29.94,8,2,20,0.00
2012-1-20,56,46,39,35,23,-19,72,45,6,30.09,29.93,6,3,14,0.00
2012-1-21,42,38,30,39,28,-12,89,71,10,30.24,29.83,15,8,34,0.22
2012-1-22,46,35,22,29,14,2,74,45,17,30.28,30.05,4,1,13,0.00
2012-1-23,40,34,29,32,26,5,86,73,28,30.10,29.86,11,5,25,0.16
2012-1-24,41,33,24,26,15,-2,87,55,17,30.53,30.10,7,3,14,0.01
2012-1-25,51,40,28,28,25,20,74,56,31,30.51,30.33,5,2,12,0.00
2012-1-26,63,47,23,20,16,11,84,36,13,30.57,30.20,6,2,16,0.00
2012-1-27,42,36,21,27,22,11,75,56,36,30.47,29.98,7,3,14,0.00
2012-1-28,47,32,16,25,-4,-25,65,32,4,30.72,30.42,5,1,10,0.00
2012-1-29,57,33,16,9,3,-7,58,37,8,30.72,30.33,4,1,6,0.00
2012-1-30,53,38,15,15,6,-4,69,32,9,30.57,30.08,5,1,13,0.00
2012-1-31,47,33,20,19,13,4,70,48,19,30.46,30.08,5,1,10,0.00
2012-2-1,48,36,20,17,11,0,75,40,20,30.45,30.19,9,4,19,0.00
2012-2-2,45,32,17,9,4,-3,64,34,13,30.33,30.14,5,1,11,0.00
2012-2-3,37,25,10,12,5,1,70,44,21,30.45,30.24,8,2,11,0.00
2012-2-4,39,25,8,13,10,0,72,54,33,30.50,30.32,6,2,13,0.00
2012-2-5,40,28,12,14,12,6,80,54,34,30.44,30.27,6,2,11,0.00
2012-2-6,44,32,12,14,11,6,76,45,26,30.42,30.10,5,1,10,0.00
2012-2-7,41,33,28,30,20,13,79,57,36,30.10,30.02,8,2,20,0.01
2012-2-8,43,35,25,25,20,18,79,57,36,30.45,30.10,7,2,10,0.00
2012-2-9,54,38,20,25,15,9,83,45,17,30.57,30.32,5,1,10,0.00
2012-2-10,57,43,18,16,11,5,71,32,12,30.52,29.99,6,2,16,0.00
2012-2-11,48,38,29,27,14,-6,82,44,10,30.07,29.87,7,3,19,0.00
2012-2-12,44,33,24,25,21,15,83,63,39,30.11,29.91,5,2,11,0.01
2012-2-13,38,30,22,27,22,16,84,73,58,30.02,29.86,13,5,27,0.00
2012-2-14,39,28,21,22,18,15,81,67,42,30.18,29.91,6,2,13,0.02
2012-2-15,30,26,19,23,19,2,86,76,30,30.12,30.00,8,3,20,0.02
2012-2-16,29,25,21,25,19,12,87,80,66,30.45,30.12,8,4,17,0.00
2012-2-17,45,29,5,17,6,-7,81,49,11,30.59,30.38,2,0,6,0.19
2012-2-18,52,33,9,23,15,4,80,52,19,30.50,29.94,8,3,19,0.00
2012-2-19,40,30,15,23,13,2,76,53,20,30.25,29.93,6,3,14,0.00
2012-2-20,44,28,10,18,11,0,77,53,26,30.38,30.22,8,1,12,0.00
2012-2-21,45,34,14,23,14,9,80,50,27,30.53,30.28,6,1,11,0.00
2012-2-22,55,40,24,26,18,5,80,47,13,30.45,30.17,5,1,11,0.00
2012-2-23,56,41,21,21,15,11,71,40,17,30.27,30.06,6,2,13,0.00
2012-2-24,53,39,23,20,15,10,73,43,20,30.37,30.15,5,2,11,0.00
2012-2-25,56,44,25,19,4,-20,74,24,6,30.26,29.97,7,2,17,0.00
2012-2-26,46,35,20,23,7,-11,74,39,10,30.14,29.85,9,3,16,0.00
2012-2-27,34,27,20,23,19,14,83,70,54,29.94,29.83,11,4,29,0.00
2012-2-28,38,26,14,21,11,-3,82,57,18,30.41,29.94,4,1,14,0.10
2012-2-29,43,31,16,22,13,7,71,50,25,30.36,30.12,8,3,20,0.00
2012-3-1,46,38,27,23,11,-3,80,37,14,30.18,29.99,18,8,31,0.00
2012-3-2,39,30,21,18,1,-24,73,36,6,30.54,30.05,7,2,17,0.00
2012-3-3,53,41,18,20,11,0,69,35,15,30.61,30.45,4,2,13,0.00
2012-3-4,60,42,21,22,15,11,79,42,16,30.55,30.26,7,2,13,0.00
2012-3-5,61,45,21,18,14,8,71,33,13,30.43,29.89,6,2,12,0.00
2012-3-6,48,37,19,27,13,-4,86,45,13,29.89,29.66,14,6,30,0.00
2012-3-7,32,23,15,11,0,-6,73,39,22,30.42,29.82,4,2,13,0.00
2012-3-8,47,36,18,9,4,-1,62,29,14,30.58,30.37,5,2,12,0.00
2012-3-9,51,37,22,15,7,-4,65,35,10,30.59,30.32,8,3,17,0.00
2012-3-10,56,41,15,18,6,-100,67,33,11,30.38,30.05,7,2,12,0.00
2012-3-11,53,44,34,19,4,-15,45,21,8,30.09,29.91,9,3,18,0.00
2012-3-12,53,39,24,20,15,9,68,40,18,30.15,29.96,7,2,17,0.00
2012-3-13,51,40,28,20,15,10,57,38,20,30.14,29.96,7,2,18,0.00
2012-3-14,55,41,26,24,19,13,71,44,20,30.25,30.02,5,2,12,0.00
2012-3-15,59,41,24,28,19,14,67,45,19,30.29,30.02,6,2,14,0.00
2012-3-16,57,45,38,29,24,16,65,46,20,30.03,29.91,7,2,18,0.00
2012-3-17,41,30,19,29,24,15,88,78,58,29.70,29.60,19,10,32,0.10
2012-3-18,25,21,18,21,16,14,85,83,80,29.96,29.67,10,5,28,2.90
2012-3-19,31,22,12,20,15,7,84,75,55,30.23,29.95,6,2,16,0.24
2012-3-20,45,30,11,24,13,-100,80,59,28,30.41,30.26,4,1,7,0.04
2012-3-21,55,39,21,29,24,17,84,61,34,30.36,30.14,5,1,8,0.00
2012-3-22,61,43,24,34,24,-100,83,55,14,30.20,29.85,7,-16,12,0.01
2012-3-23,57,46,30,27,20,11,65,39,16,30.11,29.85,6,3,14,0.00
2012-3-24,57,41,26,24,19,12,71,45,17,30.11,29.89,6,2,12,0.00
2012-3-25,49,39,23,29,17,-2,85,49,12,29.86,29.71,14,6,32,0.04
2012-3-26,44,33,24,29,24,19,83,70,46,30.22,29.81,21,4,26,0.15
2012-3-27,53,37,23,22,17,11,79,48,21,30.20,30.08,6,2,14,0.00
2012-3-28,54,42,27,28,18,2,67,40,25,30.19,30.00,7,2,19,0.00
2012-3-29,61,44,27,29,24,18,80,51,19,30.12,30.00,6,2,13,0.00
2012-3-30,64,48,28,27,23,11,81,43,17,30.11,29.91,5,2,14,0.00
2012-3-31,56,44,31,31,18,11,75,38,17,30.02,29.73,16,5,29,0.01
2012-4-1,40,32,24,31,18,11,85,59,30,30.23,29.74,12,3,30,4.52
2012-4-2,47,37,26,14,6,0,53,28,20,30.23,30.08,5,2,14,0.00
2012-4-3,59,46,24,27,17,10,64,35,17,30.22,30.01,8,2,13,0.00
2012-4-4,58,47,30,23,9,-13,69,28,5,30.05,29.85,10,4,21,0.00
2012-4-5,50,45,34,16,-2,-19,40,15,6,29.93,29.74,12,6,31,0.00
2012-4-6,48,37,23,9,-6,-24,42,18,4,30.28,29.93,8,2,14,0.00
2012-4-7,57,42,14,8,-1,-10,55,21,6,30.43,30.21,8,3,14,0.00
2012-4-8,62,47,18,18,10,-1,53,27,8,30.31,30.13,8,2,18,0.00
2012-4-9,63,51,23,21,12,4,59,25,11,30.19,29.92,9,3,16,0.00
2012-4-10,60,47,30,25,14,4,57,29,11,30.01,29.68,11,5,28,0.00
2012-4-11,42,32,28,29,25,14,83,76,31,30.14,29.68,12,6,31,0.14
2012-4-12,43,32,25,25,19,11,84,62,28,30.21,30.08,11,5,21,0.01
2012-4-13,38,29,23,25,21,-1,87,71,22,30.08,29.74,12,5,32,0.02
2012-4-14,32,26,21,25,21,17,86,80,74,30.26,29.74,8,5,21,0.32
2012-4-15,48,33,16,28,21,11,85,64,35,30.37,30.26,5,1,10,0.00
2012-4-16,56,41,21,27,21,16,81,50,25,30.37,30.21,7,2,12,0.01
2012-4-17,62,47,26,31,26,21,83,49,24,30.27,30.09,6,2,12,0.00
2012-4-18,68,55,32,32,23,8,67,33,12,30.11,29.86,8,3,14,0.00
2012-4-19,65,54,37,34,29,26,73,41,24,30.11,29.84,7,2,14,0.00
2012-4-20,69,58,36,33,29,27,79,38,21,30.14,30.03,9,4,14,0.00
2012-4-21,73,56,33,37,31,26,83,44,18,30.10,29.98,7,2,15,0.00
2012-4-22,74,60,35,41,30,20,83,40,13,30.06,29.91,8,3,16,0.00
2012-4-23,66,56,33,37,29,13,76,40,13,29.97,29.80,17,5,29,0.00
2012-4-24,66,51,31,31,19,-4,75,36,6,30.10,29.86,8,2,13,0.00
2012-4-25,63,54,49,41,30,7,74,42,16,30.00,22.52,13,4,24,0.07
2012-4-26,44,39,34,35,33,30,85,79,71,30.08,22.63,12,6,27,0.20
2012-4-27,58,45,29,32,27,13,80,51,29,30.20,30.00,6,2,13,0.00
2012-4-28,60,46,27,29,20,10,79,44,16,30.07,29.93,6,2,12,0.00
2012-4-29,64,52,27,27,21,17,76,35,17,30.01,29.94,14,5,19,0.00
2012-4-30,66,52,29,30,24,19,78,38,18,30.09,29.84,8,3,13,0.00
2012-5-1,69,56,48,33,24,9,56,32,10,29.84,29.67,8,4,19,0.00
2012-5-2,64,53,40,34,24,13,57,35,14,29.87,29.64,7,3,14,0.00
2012-5-3,65,54,36,25,16,2,64,26,8,29.97,29.80,10,4,13,0.00
2012-5-4,65,55,44,22,9,-2,28,17,8,30.00,29.83,11,5,22,0.00
2012-5-5,58,46,29,19,12,0,47,25,16,30.10,29.92,8,2,13,0.00
2012-5-6,58,49,25,15,9,6,57,23,12,30.13,30.03,8,4,20,0.00
2012-5-7,59,50,30,13,5,-2,44,18,9,30.15,29.94,10,4,26,0.00
2012-5-8,62,50,34,17,11,6,42,22,11,30.11,29.92,18,6,25,0.00
2012-5-9,68,57,29,33,17,9,58,25,10,30.09,29.84,10,4,14,0.00
2012-5-10,66,55,35,25,20,2,59,28,12,29.94,29.78,10,4,19,0.00
2012-5-11,71,57,35,26,17,5,45,23,12,29.99,29.74,9,4,17,0.00
2012-5-12,72,57,31,19,15,6,52,23,8,30.09,29.99,11,3,13,0.00
2012-5-13,75,59,32,25,17,13,64,24,11,30.13,29.99,11,4,13,0.00
2012-5-14,75,62,35,23,16,3,51,21,6,30.07,29.90,8,3,18,0.00
2012-5-15,71,59,34,21,7,-16,33,15,3,29.95,22.50,8,3,17,0.00
2012-5-16,76,62,33,26,18,11,49,22,9,30.01,29.77,7,3,14,0.00
2012-5-17,76,62,39,30,19,6,51,22,8,29.86,29.60,13,6,29,0.00
2012-5-18,62,54,40,23,15,6,50,23,11,29.94,29.60,13,4,20,0.00
2012-5-19,68,54,30,29,20,15,60,30,14,30.01,29.90,9,3,17,0.00
2012-5-20,75,61,32,30,22,17,62,28,13,30.05,29.93,9,4,18,0.00
2012-5-21,77,62,35,32,23,13,66,28,9,30.05,29.91,8,3,17,0.00
2012-5-22,78,65,37,28,20,8,35,19,8,29.96,29.69,7,3,16,0.00
2012-5-23,69,63,54,27,18,7,27,19,11,29.69,29.55,13,6,25,0.00
2012-5-24,69,57,37,31,22,10,47,27,15,29.71,22.49,7,4,17,0.00
2012-5-25,55,46,29,32,21,9,76,41,17,29.72,29.47,17,7,33,0.00
2012-5-26,46,36,28,27,23,21,79,61,40,30.08,22.78,9,5,21,0.00
2012-5-27,58,45,26,24,21,18,73,42,22,30.16,22.61,6,3,16,0.00
2012-5-28,66,49,25,29,20,14,67,36,16,30.13,29.94,7,2,14,0.00
2012-5-29,70,54,30,22,13,1,58,26,7,30.06,29.94,5,2,14,0.00
2012-5-30,69,58,31,26,18,1,47,22,13,30.08,29.93,7,3,14,0.00
2012-5-31,78,64,33,22,17,12,51,19,9,30.07,29.84,8,3,16,0.00
2012-6-1,79,63,39,30,20,11,51,22,11,29.91,22.48,7,2,16,0.00
2012-6-2,75,60,38,31,17,-1,39,20,7,29.88,29.74,6,2,12,0.00
2012-6-3,76,61,34,43,25,16,55,30,12,29.91,29.78,7,3,19,0.00
2012-6-4,70,58,37,34,28,23,67,36,18,29.95,29.76,9,4,19,0.00
2012-6-5,69,56,45,33,18,-13,55,27,6,29.83,29.71,11,5,24,0.00
2012-6-6,63,50,31,16,12,7,47,23,14,29.97,29.83,10,4,14,0.00
2012-6-7,72,56,30,30,17,11,47,25,11,30.00,29.82,8,3,13,0.00
2012-6-8,72,60,39,33,25,20,51,28,14,29.89,29.69,8,4,18,0.00
2012-6-9,74,63,52,29,23,7,38,23,11,29.73,29.61,8,4,14,0.00
2012-6-10,69,55,34,11,5,0,34,15,7,30.01,29.73,9,4,16,0.00
2012-6-11,74,55,32,24,12,5,41,22,7,30.05,29.94,7,2,16,0.00
2012-6-12,76,60,35,28,19,14,55,24,11,30.04,29.84,9,2,14,0.00
2012-6-13,77,62,35,31,15,1,32,18,6,29.91,29.69,7,3,16,0.00
2012-6-14,75,59,35,36,22,12,48,28,9,29.81,29.71,9,4,21,0.00
2012-6-15,73,57,35,29,25,20,57,32,18,29.84,29.71,12,4,20,0.00
2012-6-16,72,60,40,24,19,8,41,22,14,29.98,22.51,19,10,29,0.00
2012-6-17,75,65,45,29,20,2,25,18,8,29.97,29.80,11,6,22,0.00
2012-6-18,74,65,49,20,11,4,20,13,7,29.88,29.73,13,6,31,0.00
2012-6-19,77,67,53,20,13,-2,23,13,5,29.78,29.67,12,6,19,0.00
2012-6-20,80,66,42,20,16,12,30,17,9,29.84,29.70,9,3,17,0.00
2012-6-21,78,66,39,32,20,3,39,19,10,29.88,29.72,7,3,18,0.00
2012-6-22,75,63,52,24,12,-5,28,15,5,29.76,29.69,10,5,18,0.00
2012-6-23,74,61,38,33,24,15,46,26,13,29.81,29.70,7,3,14,0.00
2012-6-24,78,65,38,34,23,7,46,23,7,29.93,29.80,8,4,13,0.00
2012-6-25,75,62,40,18,11,5,27,15,7,29.94,29.79,9,3,18,0.00
2012-6-26,76,62,33,22,8,-12,25,14,3,29.93,29.73,5,3,19,0.00
2012-6-27,77,65,36,34,22,7,30,20,10,29.94,29.74,8,4,20,0.00
2012-6-28,77,61,43,27,24,20,46,26,15,29.97,29.84,8,2,13,0.00
2012-7-8,74,74,74,34,34,34,23,23,23,29.91,29.91,1,1,3,0.00
2012-7-23,77,68,54,52,49,46,81,53,39,29.92,29.84,6,2,13,0.00
2012-7-24,78,64,50,48,42,18,82,50,20,29.94,29.84,5,2,10,0.00
2012-7-25,78,66,46,30,25,18,49,23,13,29.96,29.85,7,2,12,0.00
2012-7-26,75,62,43,32,21,10,55,26,9,29.99,29.88,10,3,17,0.00
2012-7-27,78,62,40,21,12,-3,37,18,4,30.03,29.89,6,2,13,0.00
2012-7-28,79,66,40,17,8,2,27,12,5,30.02,29.90,9,4,18,0.00
2012-7-29,79,69,41,36,28,11,45,23,8,30.01,29.86,9,3,16,0.00
2012-7-30,75,64,49,51,45,37,65,51,31,29.95,29.84,7,2,14,0.00
2012-7-31,69,63,57,55,51,47,81,65,52,29.98,29.88,8,2,14,0.04
2012-8-1,67,60,52,55,52,48,88,74,58,30.03,29.95,6,2,12,2.41
2012-8-2,77,69,50,53,46,42,87,47,30,30.01,29.81,8,3,14,0.00
2012-8-3,76,65,48,48,42,37,78,47,25,29.91,29.75,6,2,14,0.00
2012-8-4,75,63,47,48,44,41,78,53,30,29.96,29.80,6,1,16,0.00
2012-8-5,80,64,46,49,41,38,79,47,25,30.04,29.94,4,1,12,0.00
2012-8-6,79,65,45,54,42,37,74,47,25,30.13,29.92,10,2,16,0.05
2012-8-7,80,66,49,61,46,40,80,53,27,30.07,29.89,8,1,16,0.24
2012-8-8,84,69,50,53,44,39,86,47,23,30.05,29.82,7,2,18,0.00
2012-8-9,84,69,51,54,46,39,78,48,20,30.01,29.81,7,2,14,0.00
2012-8-10,85,68,51,52,41,28,85,47,13,29.96,29.75,13,3,29,0.00
2012-8-11,81,63,51,56,46,40,84,58,24,30.01,29.79,7,2,16,0.65
2012-8-12,79,61,49,54,48,44,87,66,33,30.02,29.86,6,2,14,0.46
2012-8-13,79,60,50,54,48,37,89,68,22,30.02,29.85,6,1,13,0.15
2012-8-14,80,64,48,52,44,40,87,55,25,29.98,29.74,8,2,20,0.00
2012-8-15,79,63,45,44,37,32,71,44,21,29.96,29.81,6,2,11,0.00
2012-8-16,76,64,52,57,43,33,67,49,21,29.97,29.84,5,1,11,0.04
2012-8-17,74,65,54,55,50,47,80,61,41,29.96,29.84,5,1,11,0.00
2012-8-18,72,61,50,58,52,46,89,75,54,29.98,29.81,6,1,10,0.02
2012-8-19,77,63,50,54,50,45,89,66,35,29.95,29.80,6,2,12,0.00
2012-8-20,76,62,50,58,50,42,88,69,41,29.99,29.69,6,1,11,0.57
2012-8-21,75,64,51,58,52,48,90,68,44,29.96,29.72,6,1,11,0.01
2012-8-22,71,62,55,57,52,49,88,73,47,29.94,29.76,6,2,12,0.05
2012-8-23,69,58,45,52,48,42,90,70,39,30.08,29.86,6,1,8,0.01
2012-8-24,75,61,45,49,44,41,89,60,30,30.07,29.82,7,2,13,0.00
2012-8-25,74,60,46,53,46,43,89,65,35,29.92,29.75,5,2,12,0.00
2012-8-26,76,64,38,43,30,16,77,34,12,30.00,29.75,6,3,13,0.00
2012-8-27,78,62,42,40,35,31,71,41,20,30.05,29.75,7,2,13,0.00
2012-8-28,80,65,43,44,38,34,75,41,20,30.06,29.89,7,2,14,0.00
2012-8-29,75,59,49,55,47,39,88,67,38,30.04,29.82,6,1,14,0.57
2012-8-30,74,57,45,55,48,42,90,74,34,30.09,29.81,5,1,13,0.06
2012-8-31,71,59,46,54,43,25,89,60,25,29.98,29.87,8,3,17,0.01
2012-9-1,71,59,41,32,25,19,59,29,17,30.07,29.89,9,3,17,0.00
2012-9-2,78,58,29,28,19,4,67,30,6,30.18,29.94,6,2,11,0.00
2012-9-3,77,66,46,42,35,26,60,34,19,30.02,29.89,5,2,12,0.00
2012-9-4,74,64,50,49,44,41,76,51,31,30.05,29.91,5,2,15,0.00
2012-9-5,53,52,52,43,43,43,71,70,69,30.00,29.98,2,2,5,0.00
2012-9-7,72,72,72,37,37,37,28,28,28,30.01,30.01,1,1,3,0.00
2012-9-11,51,51,51,45,45,45,79,79,79,29.94,29.94,0,0,0,0.00
2012-9-12,55,55,55,48,48,48,77,77,77,30.09,30.09,0,0,2,0.00
2012-9-13,52,51,50,36,32,25,59,48,38,30.19,30.07,0,0,2,0.00
2012-9-14,72,58,43,31,28,25,48,35,22,30.19,30.19,8,4,17,0.00
2012-9-17,38,38,38,28,28,28,66,66,66,30.13,30.13,0,0,0,0.00
2012-9-18,73,73,73,28,28,28,19,19,19,30.07,30.07,6,6,13,0.00
2012-9-24,62,62,62,36,36,36,38,38,38,29.95,29.95,8,8,21,0.00
2012-9-25,60,49,42,31,29,26,54,46,32,29.95,29.86,1,0,2,0.00
2012-9-26,69,56,33,29,27,25,73,38,20,30.07,29.94,10,4,19,0.00
2012-9-27,71,56,36,42,32,25,71,45,20,30.12,29.94,8,3,21,0.00
2012-9-28,67,50,37,37,32,28,72,54,27,30.08,29.96,4,1,8,0.00
2012-9-29,70,53,36,30,28,25,74,44,19,30.13,30.04,5,2,16,0.00
2012-9-30,73,56,34,30,24,21,67,34,14,30.30,30.12,8,2,14,0.00
2012-10-1,75,60,35,29,22,18,61,27,13,30.30,30.05,6,3,16,0.00
2012-10-2,77,61,33,28,22,16,52,26,12,30.22,29.97,6,2,11,0.00
2012-10-3,71,58,40,36,27,23,52,34,18,30.06,29.96,7,3,19,0.00
2012-10-4,72,57,35,34,21,9,59,30,9,30.19,29.95,7,2,13,0.00
2012-10-5,69,53,35,29,20,5,51,29,12,30.18,29.98,7,2,13,0.00
2012-10-6,67,54,32,38,24,6,61,37,9,30.17,29.91,6,2,11,0.00
2012-10-7,66,52,31,40,29,16,73,46,22,30.11,29.92,7,2,13,0.00
2012-10-8,68,51,30,29,16,2,75,34,8,30.14,29.98,7,2,17,0.00
2012-10-9,66,54,33,34,21,8,46,30,12,30.14,29.89,7,2,14,0.00
2012-10-10,58,44,34,35,21,9,79,43,14,30.05,29.87,8,2,19,0.00
2012-10-11,45,37,26,33,29,20,80,71,55,30.04,29.81,7,2,16,0.03
2012-10-12,44,37,29,32,29,25,83,73,59,30.28,29.98,8,3,16,0.00
2012-10-13,60,45,26,36,30,20,83,58,38,30.42,30.24,6,2,12,0.00
2012-10-14,62,48,28,33,28,22,78,49,28,30.44,30.18,8,2,21,0.00
2012-10-15,66,51,26,27,22,17,77,37,15,30.34,30.08,6,2,13,0.00
2012-10-16,71,54,27,23,20,14,61,31,14,30.25,29.93,7,2,14,0.00
2012-10-17,71,56,30,30,25,14,57,33,20,30.16,29.95,9,4,17,0.00
2012-10-18,67,49,29,32,25,19,73,42,21,30.30,30.06,7,2,13,0.00
2012-10-19,67,51,26,21,16,9,57,30,13,30.32,30.00,5,2,14,0.00
2012-10-20,63,51,30,32,24,18,62,38,20,30.06,29.76,8,3,20,0.00
2012-10-21,61,49,36,38,28,17,83,47,24,29.92,29.73,6,2,17,0.00
2012-10-22,57,50,42,34,22,7,74,36,14,30.00,29.77,8,4,25,0.00
2012-10-23,55,46,41,35,6,-27,76,27,3,29.94,29.83,14,6,25,0.00
2012-10-24,55,45,38,13,-1,-19,30,17,4,30.12,29.84,6,4,16,0.00
2012-10-26,55,41,22,15,5,-11,62,28,6,30.45,30.23,7,2,14,0.00
2012-10-27,64,47,24,15,11,6,49,27,13,30.37,30.09,6,2,12,0.00
2012-10-28,66,44,23,12,10,7,50,28,10,30.40,30.13,5,1,10,0.00
2012-10-29,64,42,24,13,7,3,46,28,10,30.46,30.20,6,1,12,0.00
2012-10-30,64,45,22,13,8,3,45,25,11,30.47,30.16,5,2,13,0.00
2012-10-31,63,41,23,18,12,6,52,34,13,30.41,30.08,7,1,11,0.00
2012-11-1,61,46,25,13,5,-2,50,21,10,30.25,30.04,7,2,13,0.00
2012-11-2,57,40,19,19,9,-2,50,30,16,30.29,30.05,7,2,12,0.00
2012-11-3,57,41,20,16,12,5,57,34,17,30.41,30.16,7,2,14,0.00
2012-11-4,61,43,23,15,13,10,62,33,16,30.54,30.29,9,3,14,0.00
2012-11-5,62,45,31,22,18,14,55,36,19,30.53,30.25,8,2,13,0.00
2012-11-6,66,46,26,24,19,15,68,40,18,30.50,30.21,6,2,12,0.00
2012-11-7,64,45,24,22,17,3,71,38,17,30.40,29.90,7,2,12,0.00
2012-11-8,53,46,41,39,31,13,84,57,25,30.10,29.72,10,5,25,0.03
2012-11-9,42,32,26,35,23,18,78,70,61,29.98,29.69,12,8,37,0.00
2012-11-10,29,25,15,20,14,3,82,63,44,30.39,29.98,12,5,22,0.01
2012-11-11,37,20,4,10,4,-2,74,52,21,30.70,30.39,5,1,11,0.03
2012-11-12,51,30,11,11,-1,-18,63,37,5,30.70,30.41,8,2,12,0.00
2012-11-13,58,31,14,15,10,4,76,50,11,30.63,30.29,9,2,14,0.00
2012-11-14,58,37,15,12,5,-9,66,34,6,30.55,30.20,5,1,11,0.00
2012-11-15,56,42,25,19,14,9,55,34,16,30.42,30.08,4,1,10,0.00
2012-11-19,59,35,18,26,17,11,83,54,15,30.55,30.27,6,1,11,0.00
2012-11-20,58,37,18,19,13,9,70,43,15,30.52,30.20,6,1,13,0.00
2012-11-21,61,41,21,22,16,9,63,40,17,30.43,30.14,5,2,13,0.00
2012-11-22,55,39,21,27,19,8,64,47,31,30.50,30.15,7,2,13,0.00
2012-11-23,59,40,19,20,15,10,71,42,20,30.65,30.34,8,2,17,0.00
2012-11-24,61,37,18,21,13,5,68,42,14,30.59,30.14,7,1,11,0.00
2012-11-25,57,42,24,26,22,17,82,50,26,30.31,30.06,6,2,16,0.00
2012-11-26,25,24,21,17,16,15,77,73,71,30.38,30.11,1,1,3,0.00
2012-11-27,55,37,18,24,18,12,80,52,22,30.54,30.27,5,1,8,0.00
2012-11-28,53,40,19,38,24,12,80,55,28,30.47,30.10,7,3,16,0.00
2012-11-29,45,42,41,40,37,35,88,82,73,30.22,30.09,14,7,30,0.15
2012-11-30,47,44,40,41,37,24,89,79,48,30.17,30.08,11,5,24,0.14
2012-12-1,49,41,30,36,32,27,88,73,52,30.19,30.11,7,2,17,0.00
2012-12-2,50,39,29,39,34,26,89,81,58,30.29,30.05,10,3,21,0.01
2012-12-3,57,44,29,38,26,7,88,58,13,30.34,30.09,5,2,13,0.00
2012-12-4,62,42,26,29,17,9,65,41,14,30.55,30.26,3,1,7,0.00
2012-12-5,64,50,21,35,25,8,79,45,15,30.37,29.95,5,1,12,0.00
2012-12-6,50,40,25,37,31,21,87,72,52,30.17,29.91,4,1,9,0.00
2012-12-7,51,33,18,32,19,9,86,60,26,30.35,30.13,6,1,10,0.00
2012-12-8,51,19,11,9,3,-6,65,55,9,30.42,30.13,4,0,8,0.00
2012-12-9,51,34,16,14,10,4,65,41,18,30.45,30.14,7,2,12,0.00
2012-12-10,51,40,24,21,17,9,53,40,30,30.44,30.26,4,2,12,0.00
2012-12-11,53,37,17,21,13,7,67,41,17,30.45,29.90,7,3,16,0.00
2012-12-12,47,40,34,28,15,0,75,38,14,29.90,29.76,17,10,40,0.00
2012-12-13,35,32,28,30,28,23,89,83,72,29.84,29.75,11,2,21,0.18
2012-12-14,29,25,21,23,18,12,85,75,60,30.05,29.75,7,4,18,0.03
2012-12-15,35,28,22,23,16,6,85,63,31,30.16,29.99,7,3,21,0.12
2012-12-16,41,33,25,32,27,20,88,79,59,30.23,30.09,6,3,19,0.01
2012-12-17,50,38,30,32,28,20,86,70,30,30.20,29.93,7,3,19,2.78
2012-12-18,36,30,16,32,25,8,87,82,70,30.08,29.79,10,7,29,0.12
2012-12-19,29,18,9,9,0,-18,75,49,12,30.65,30.07,5,2,14,0.02
2012-12-20,49,28,6,11,6,0,78,47,16,30.71,30.27,3,1,10,0.05
2012-12-21,51,32,13,12,4,-4,67,38,10,30.46,30.18,5,1,13,0.00
2012-12-22,44,32,14,29,7,-11,77,44,9,30.38,30.12,10,4,25,0.00
2012-12-23,42,35,31,29,24,16,85,65,35,30.21,30.09,8,5,24,0.00
2012-12-24,45,34,20,31,21,2,87,62,16,30.28,30.01,10,4,24,0.01
2012-12-25,46,31,17,20,12,0,75,50,14,30.38,29.94,5,1,14,0.00
2012-12-26,33,30,25,28,21,11,88,71,39,30.06,29.87,11,5,24,0.13
2012-12-27,29,24,14,19,16,6,83,72,54,30.34,30.02,8,2,22,0.01
2012-12-28,32,20,4,14,9,-2,80,64,38,30.53,30.20,5,1,10,0.02
2012-12-29,34,24,13,21,16,7,86,71,47,30.31,30.04,5,1,10,0.00
2012-12-30,25,19,6,18,14,0,85,80,71,30.23,30.07,7,2,11,0.02
2012-12-31,35,18,1,16,5,-5,81,62,22,30.66,30.20,2,0,6,0.07
2013-1-1,31,20,2,12,2,-4,77,50,28,30.62,30.42,7,2,11,0.00